KD4SN Weather Reports


Display with metric or nautical units.
time (UTC)temp
F
wind
direction
speed
MPH
gust
MPH
rain 1hr
in
rain 24hr
in
rain mn
in
humidity
%
barometer
mb
20260906031514 78 5 0.0 2.0 0.00 0.22 0.22 68 1013.6
20260906031011 78 5 0.0 2.0 0.00 0.22 0.22 67 1013.6
20260906030514 78 244 0.0 1.0 0.00 0.22 0.22 68 1013.8
20260906030019 78 9 0.0 0.0 0.00 0.22 0.22 67 1013.7
20260906025512 78 5 0.0 0.0 0.00 0.22 0.22 67 1013.5
20260906025013 79 5 0.0 0.0 0.00 0.22 0.22 67 1013.4
20260906024528 79 5 0.0 0.0 0.00 0.22 0.22 67 1013.2
20260906024017 79 5 0.0 0.0 0.00 0.22 0.22 66 1013.0
20260906023504 79 5 0.0 0.0 0.00 0.22 0.22 66 1013.1
20260906023005 79 5 0.0 0.0 0.00 0.22 0.22 65 1013.2
20260906022506 79 5 0.0 1.0 0.00 0.22 0.22 64 1013.2
20260906022006 79 5 0.0 1.0 0.00 0.22 0.22 64 1013.1
20260906021511 79 5 0.0 1.0 0.00 0.22 0.22 64 1013.2
20260906021009 79 5 0.0 0.0 0.00 0.22 0.22 64 1013.1
20260906020511 80 5 0.0 0.0 0.00 0.22 0.22 64 1013.0
20260906020014 80 5 0.0 0.0 0.00 0.22 0.22 64 1013.0
20260906015515 80 5 0.0 0.0 0.00 0.22 0.22 64 1013.0
20260906015011 80 5 0.0 0.0 0.00 0.22 0.22 63 1013.0
20260906014529 80 5 0.0 0.0 0.00 0.22 0.22 63 1013.1
20260906014017 80 5 0.0 0.0 0.00 0.22 0.22 62 1013.1
20260906013514 81 5 0.0 0.0 0.00 0.22 0.22 62 1013.0
20260906013028 81 5 0.0 1.0 0.00 0.22 0.22 61 1013.2
20260906012513 81 5 0.0 2.0 0.00 0.22 0.22 60 1013.0
20260906012007 81 5 0.0 3.0 0.00 0.22 0.22 60 1012.8
20260906011512 81 5 0.0 3.0 0.00 0.22 0.22 60 1012.9
20260906011011 81 5 0.0 3.0 0.00 0.22 0.22 60 1012.9
20260906010505 82 5 0.0 3.0 0.00 0.22 0.22 59 1012.7
20260906010016 82 5 1.0 3.0 0.00 0.22 0.22 59 1012.7
20260906005507 82 5 1.0 2.0 0.00 0.22 0.22 59 1012.7
20260906005011 82 5 0.0 3.0 0.00 0.22 0.22 59 1012.7
20260906004520 82 5 1.0 4.0 0.00 0.22 0.22 58 1012.6
20260906004011 83 355 1.0 4.0 0.00 0.22 0.22 58 1012.5
20260906003515 83 360 1.0 3.0 0.00 0.22 0.22 1012.6
20260906003028 83 5 0.0 0.0 0.00 0.22 0.22 57 1012.6
20260906002513 84 5 0.0 0.0 0.00 0.22 0.22 57 1012.4
20260906002014 84 5 0.0 0.0 0.00 0.22 0.22 56 1012.4
20260906001533 84 5 0.0 1.0 0.00 0.22 0.22 55 1012.6
20260906001016 84 5 0.0 1.0 0.00 0.22 0.22 55 1012.6
20260906000507 85 5 0.0 1.0 0.00 0.22 0.22 54 1012.7
20260906000012 85 5 0.0 3.0 0.00 0.22 0.22 54 1012.7
20260905235507 86 5 1.0 3.0 0.00 0.22 0.22 53 1012.8
20260905235007 86 11 0.0 2.0 0.00 0.22 0.22 54 1012.9
20260905234516 86 273 0.0 3.0 0.00 0.22 0.22 54 1013.0
20260905234017 87 309 0.0 3.0 0.00 0.22 0.22 53 1013.0
20260905233511 87 342 1.0 3.0 0.00 0.22 0.22 54 1013.1
20260905233030 87 286 0.0 3.0 0.00 0.22 0.22 53 1013.0
20260905232513 87 192 0.0 3.0 0.00 0.22 0.22 52 1013.0
20260905232014 88 188 0.0 3.0 0.00 0.22 0.22 52 1013.1
20260905231532 88 191 0.0 4.0 0.00 0.22 0.22 51 1013.1
20260905231017 88 204 1.0 4.0 0.00 0.22 0.22 51 1013.2
20260905230519 88 192 1.0 5.0 0.00 0.22 0.22 50 1013.1
20260905230111 88 205 0.0 6.0 0.00 0.22 0.22 50 1013.1
20260905225516 88 230 1.0 6.0 0.00 0.22 0.22 49 1013.0
20260905225006 89 198 0.0 4.0 0.00 0.22 0.22 50 1013.0
20260905224556 89 176 1.0 6.0 0.00 0.22 0.22 48 1012.9
20260905224018 89 207 0.0 6.0 0.00 0.22 0.22 49 1012.9
20260905223518 89 277 0.0 5.0 0.00 0.22 0.22 48 1013.0
20260905223031 89 204 2.0 5.0 0.00 0.22 0.22 48 1013.0
20260905222513 89 213 1.0 3.0 0.00 0.22 0.22 47 1012.9
20260905222003 90 288 0.0 7.0 0.00 0.22 0.22 46 1012.9
20260905221510 90 221 2.0 9.0 0.00 0.22 0.22 47 1012.8
20260905221004 90 189 3.0 9.0 0.00 0.22 0.22 45 1012.9
20260905220505 90 161 2.0 9.0 0.00 0.22 0.22 45 1012.9
20260905220007 90 182 1.0 9.0 0.00 0.22 0.22 45 1013.0
20260905215509 90 234 0.0 7.0 0.00 0.22 0.22 46 1012.9
20260905215006 90 192 2.0 7.0 0.00 0.22 0.22 45 1012.9
20260905214507 90 259 1.0 6.0 0.00 0.22 0.22 45 1012.9
20260905214008 90 198 2.0 7.0 0.00 0.22 0.22 44 1012.8
20260905213508 90 275 1.0 7.0 0.00 0.22 0.22 45 1012.8
20260905213016 91 190 2.0 7.0 0.00 0.22 0.22 45 1012.8
20260905212510 91 151 1.0 7.0 0.00 0.22 0.22 44 1012.7
20260905212015 91 269 0.0 6.0 0.00 0.22 0.22 44 1012.8
20260905211510 91 236 3.0 6.0 0.00 0.22 0.22 43 1012.7
20260905211003 91 64 0.0 4.0 0.00 0.22 0.22 44 1012.7
20260905210502 91 180 1.0 5.0 0.00 0.22 0.22 43 1012.7
20260905210005 91 153 2.0 5.0 0.00 0.22 0.22 42 1012.8
20260905205505 91 296 1.0 4.0 0.00 0.22 0.22 43 1012.8
20260905205004 91 178 1.0 4.0 0.00 0.22 0.22 42 1012.8
20260905204506 92 219 1.0 7.0 0.00 0.22 0.22 42 1012.8
20260905204007 92 207 3.0 7.0 0.00 0.22 0.22 42 1012.8
20260905203508 92 217 3.0 7.0 0.00 0.22 0.22 40 1012.8
20260905203012 93 180 2.0 8.0 0.00 0.22 0.22 39 1012.9
20260905202507 93 232 1.0 8.0 0.00 0.22 0.22 39 1013.0
20260905202009 93 126 1.0 6.0 0.00 0.22 0.22 40 1013.1
20260905201517 93 157 0.0 6.0 0.00 0.22 0.22 39 1013.2
20260905201013 93 196 0.0 3.0 0.00 0.22 0.22 41 1013.3
20260905200515 92 111 0.0 8.0 0.00 0.22 0.22 44 1013.4
20260905200004 92 255 1.0 8.0 0.00 0.22 0.22 42 1013.4
20260905195506 92 208 1.0 5.0 0.00 0.22 0.22 40 1013.4
20260905195008 92 190 2.0 4.0 0.00 0.22 0.22 40 1013.5
20260905194504 91 196 1.0 3.0 0.00 0.22 0.22 39 1013.6
20260905194004 91 238 0.0 3.0 0.00 0.22 0.22 42 1013.7
20260905193507 91 131 1.0 3.0 0.00 0.22 0.22 44 1013.8
20260905193010 91 140 0.0 3.0 0.00 0.22 0.22 46 1013.7
20260905192509 90 209 0.0 3.0 0.00 0.22 0.22 44 1013.7
20260905192013 90 68 0.0 3.0 0.00 0.22 0.22 47 1013.8
20260905191516 89 99 1.0 3.0 0.00 0.22 0.22 45 1013.8
20260905191008 89 94 1.0 3.0 0.00 0.22 0.22 46 1013.9
20260905190510 89 70 0.0 2.0 0.00 0.22 0.22 47 1013.9
20260905190025 89 39 0.0 2.0 0.00 0.22 0.22 44 1014.1
20260905185513 89 63 1.0 3.0 0.00 0.22 0.22 44 1014.1
20260905185014 88 111 0.0 3.0 0.00 0.22 0.22 44 1014.2
20260905184503 88 48 0.0 3.0 0.00 0.22 0.22 48 1014.3
20260905184003 88 115 1.0 5.0 0.00 0.22 0.22 47 1014.3
20260905183504 88 360 1.0 5.0 0.00 0.22 0.22 48 1014.4
20260905183006 88 109 1.0 4.0 0.00 0.22 0.22 48 1014.4
20260905182505 87 80 0.0 3.0 0.00 0.22 0.22 49 1014.5
20260905182005 87 98 0.0 3.0 0.00 0.22 0.22 50 1014.6
20260905181512 87 88 0.0 3.0 0.00 0.22 0.22 49 1014.7
20260905181010 87 9 0.0 3.0 0.00 0.22 0.22 50 1014.7
20260905180512 86 352 0.0 3.0 0.00 0.22 0.22 49 1014.8
20260905180017 86 59 0.0 3.0 0.00 0.22 0.22 49 1014.9
20260905175511 86 12 0.0 3.0 0.00 0.22 0.22 49 1015.0
20260905175014 86 58 0.0 3.0 0.00 0.22 0.22 49 1015.0
20260905174524 85 57 1.0 3.0 0.00 0.22 0.22 51 1015.2
20260905174016 85 96 0.0 2.0 0.00 0.22 0.22 53 1015.1
20260905173518 85 5 0.0 3.0 0.00 0.22 0.22 52 1015.1
20260905173007 84 63 0.0 3.0 0.00 0.22 0.22 53 1015.0
20260905172503 84 72 0.0 4.0 0.00 0.22 0.22 52 1015.2
20260905172003 84 117 0.0 4.0 0.00 0.22 0.22 53 1015.2
20260905171523 84 51 0.0 3.0 0.00 0.22 0.22 51 1015.3
20260905171013 84 51 0.0 5.0 0.00 0.22 0.22 52 1015.4
20260905170506 83 59 0.0 5.0 0.00 0.22 0.22 54 1015.5
20260905170014 83 44 0.0 3.0 0.00 0.22 0.22 57 1015.5
20260905165512 83 53 0.0 3.0 0.00 0.22 0.22 56 1015.5
20260905165010 83 5 0.0 3.0 0.00 0.22 0.22 57 1015.5
20260905164523 82 61 1.0 4.0 0.00 0.22 0.22 57 1015.3
20260905164012 82 63 0.0 4.0 0.00 0.22 0.22 57 1015.3
20260905163515 82 61 0.0 4.0 0.00 0.22 0.22 59 1015.4
20260905163030 82 67 1.0 5.0 0.00 0.22 0.22 60 1015.3
20260905162516 81 5 1.0 5.0 0.00 0.22 0.22 58 1015.3
20260905162018 81 360 1.0 3.0 0.00 0.22 0.22 60 1015.3
20260905161537 80 67 1.0 2.0 0.00 0.22 0.22 62 1015.4
20260905161020 80 20 0.0 3.0 0.00 0.22 0.22 63 1015.4
20260905160516 80 23 1.0 3.0 0.00 0.22 0.22 63 1015.5
20260905160044 79 60 0.0 3.0 0.00 0.22 0.22 64 1015.4
20260905155518 79 13 0.0 2.0 0.00 0.22 0.22 67 1015.5
20260905155015 79 62 0.0 2.0 0.00 0.22 0.22 68 1015.7
20260905154540 78 96 0.0 2.0 0.00 0.22 0.22 67 1015.8
20260905154015 78 56 1.0 4.0 0.00 0.22 0.22 69 1015.9
20260905153513 78 48 0.0 4.0 0.00 0.22 0.22 70 1016.0
20260905153027 77 39 0.0 3.0 0.00 0.22 0.22 71 1016.0
20260905152515 77 39 0.0 3.0 0.00 0.22 0.22 70 1016.1
20260905152015 77 15 0.0 5.0 0.00 0.22 0.22 72 1016.0
20260905151531 76 59 1.0 5.0 0.00 0.22 0.22 70 1016.0
20260905151019 76 40 1.0 4.0 0.00 0.22 0.22 74 1016.0
20260905150519 75 11 0.0 5.0 0.00 0.22 0.22 75 1016.0
20260905150031 75 40 1.0 5.0 0.00 0.22 0.22 74 1016.1
20260905145518 74 351 3.0 5.0 0.00 0.22 0.22 74 1016.1
20260905145019 74 5 2.0 4.0 0.00 0.22 0.22 78 1016.2
20260905144541 74 5 0.0 5.0 0.00 0.22 0.22 79 1016.3
20260905144017 73 42 2.0 5.0 0.00 0.22 0.22 80 1016.3
20260905143515 73 17 1.0 5.0 0.00 0.22 0.22 83 1016.4
20260905143022 73 32 1.0 3.0 0.00 0.22 0.22 85 1016.4
20260905142512 72 14 1.0 5.0 0.00 0.22 0.22 86 1016.5
20260905142015 72 13 2.0 6.0 0.00 0.22 0.22 86 1016.5
20260905141528 71 5 2.0 6.0 0.00 0.22 0.22 88 1016.4
20260905141016 71 9 1.0 4.0 0.00 0.22 0.22 90 1016.4
20260905140517 71 25 2.0 4.0 0.00 0.22 0.22 91 1016.3
20260905140035 70 360 0.0 4.0 0.00 0.22 0.22 91 1016.4
20260905135518 70 350 1.0 4.0 0.01 0.22 0.22 91 1016.4
20260905135016 70 352 0.0 1.0 0.01 0.22 0.22 91 1016.5
20260905134534 70 5 0.0 3.0 0.01 0.22 0.22 92 1016.7
20260905134016 70 5 0.0 3.0 0.03 0.22 0.22 92 1016.7
20260905133519 70 355 1.0 3.0 0.03 0.22 0.22 92 1016.6
20260905133030 70 310 0.0 3.0 0.03 0.22 0.22 92 1016.7
20260905132515 70 318 0.0 3.0 0.03 0.22 0.22 92 1016.8
20260905132005 70 238 0.0 7.0 0.03 0.22 0.22 92 1017.2
20260905131508 70 284 0.0 10.0 0.03 0.22 0.22 92 1017.2
20260905131005 70 314 1.0 10.0 0.03 0.22 0.22 92 1017.3
20260905130503 70 261 1.0 10.0 0.03 0.22 0.22 92 1017.1
20260905130011 70 232 1.0 10.0 0.03 0.22 0.22 92 1017.0
20260905125507 70 269 2.0 10.0 0.02 0.21 0.21 91 1017.0
20260905125006 70 279 2.0 10.0 0.04 0.21 0.21 91 1017.0
20260905124508 70 285 2.0 9.0 0.09 0.19 0.19 90 1017.0
20260905124005 70 280 0.0 7.0 0.14 0.19 0.19 90 1017.2
20260905123505 70 253 1.0 7.0 0.16 0.19 0.19 89 1016.9
20260905123009 70 271 0.0 7.0 0.18 0.19 0.19 90 1016.7
20260905122506 70 305 0.0 3.0 0.19 0.19 0.19 91 1016.7
20260905122006 70 263 0.0 3.0 0.19 0.19 0.19 90 1016.5
20260905121509 70 137 0.0 4.0 0.19 0.19 0.19 90 1016.6
20260905121006 70 117 1.0 4.0 0.19 0.19 0.19 89 1016.6
20260905120508 70 230 1.0 4.0 0.19 0.19 0.19 89 1016.5
20260905120009 70 267 0.0 3.0 0.19 0.19 0.19 89 1016.3
20260905115505 71 332 0.0 3.0 0.19 0.19 0.19 89 1015.8
20260905115008 71 18 1.0 12.0 0.17 0.17 0.17 87 1016.1
20260905114509 71 301 1.0 12.0 0.10 0.10 0.10 85 1016.6
20260905114005 72 163 3.0 10.0 0.05 0.05 0.05 81 1016.9
20260905113508 73 233 4.0 12.0 0.03 0.03 0.03 77 1016.6
20260905113010 74 273 5.0 12.0 0.01 0.01 0.01 73 1016.9
20260905112506 75 239 3.0 24.0 0.00 0.00 0.00 71 1016.5
20260905112008 76 172 5.0 24.0 0.00 0.00 0.00 71 1016.1
20260905111508 76 219 4.0 15.0 0.00 0.00 0.00 73 1016.3
20260905111006 76 221 3.0 17.0 0.00 0.00 0.00 73 1016.0
20260905110509 77 175 6.0 17.0 0.00 0.00 0.00 73 1016.0
20260905110012 77 180 8.0 17.0 0.00 0.00 0.00 74 1015.9
20260905105508 77 278 3.0 12.0 0.00 0.00 0.00 77 1015.8
20260905105008 76 186 3.0 8.0 0.00 0.00 0.00 80 1015.3
20260905104517 76 205 2.0 4.0 0.00 0.00 0.00 83 1014.7
20260905104007 76 281 0.0 0.0 0.00 0.00 0.00 84 1014.5
20260905103509 76 281 0.0 0.0 0.00 0.00 0.00 84 1014.4
20260905103009 76 281 0.0 0.0 0.00 0.00 0.00 84 1014.4
20260905102506 76 281 0.0 0.0 0.00 0.00 0.00 83 1014.3
20260905102010 76 281 0.0 0.0 0.00 0.00 0.00 83 1014.3
20260905101512 76 281 0.0 0.0 0.00 0.00 0.00 83 1014.4
20260905101007 76 281 0.0 0.0 0.00 0.00 0.00 83 1014.6
20260905100507 76 281 0.0 0.0 0.00 0.00 0.00 83 1014.6
20260905100013 76 281 0.0 0.0 0.00 0.00 0.00 82 1014.6
20260905095508 76 281 0.0 0.0 0.00 0.00 0.00 82 1014.7
20260905095007 76 281 0.0 0.0 0.00 0.00 0.00 82 1014.7
20260905094512 76 281 0.0 0.0 0.00 0.00 0.00 82 1014.5
20260905094007 76 281 0.0 0.0 0.00 0.00 0.00 82 1014.5
20260905093511 76 281 0.0 0.0 0.00 0.00 0.00 81 1014.5
20260905093014 76 281 0.0 0.0 0.00 0.00 0.00 81 1014.4
20260905092511 76 281 0.0 0.0 0.00 0.00 0.00 81 1014.4
20260905092011 76 281 0.0 0.0 0.00 0.00 0.00 80 1014.3
20260905091515 76 281 0.0 0.0 0.00 0.00 0.00 80 1014.4
20260905091010 76 281 0.0 0.0 0.00 0.00 0.00 80 1014.4
20260905090510 76 281 0.0 0.0 0.00 0.00 0.00 80 1014.3
20260905090019 76 281 0.0 0.0 0.00 0.00 0.00 80 1014.4
20260905085508 76 281 0.0 0.0 0.00 0.00 0.00 80 1014.4
20260905085009 76 281 0.0 0.0 0.00 0.00 0.00 80 1014.3
20260905084522 77 281 0.0 0.0 0.00 0.00 0.00 79 1014.3
20260905084009 77 281 0.0 0.0 0.00 0.00 0.00 79 1014.3
20260905083508 77 281 0.0 0.0 0.00 0.00 0.00 79 1014.2
20260905083016 77 281 0.0 0.0 0.00 0.00 0.00 79 1014.2
20260905082510 77 281 0.0 0.0 0.00 0.00 0.00 79 1014.2
20260905082012 77 281 0.0 0.0 0.00 0.00 0.00 79 1014.1
20260905081518 77 281 0.0 0.0 0.00 0.00 0.00 79 1014.2
20260905081013 77 281 0.0 0.0 0.00 0.00 0.00 79 1014.1
20260905080511 77 281 0.0 0.0 0.00 0.00 0.00 79 1014.2
20260905080033 77 281 0.0 0.0 0.00 0.00 0.00 79 1014.2
20260905075511 77 281 0.0 0.0 0.00 0.00 0.00 78 1014.3
20260905075009 77 281 0.0 0.0 0.00 0.00 0.00 78 1014.3
20260905074519 77 281 0.0 0.0 0.00 0.00 0.00 79 1014.2
20260905074012 77 281 0.0 0.0 0.00 0.00 0.00 78 1014.2
20260905073511 77 281 0.0 0.0 0.00 0.00 0.00 78 1014.3
20260905073034 77 281 0.0 0.0 0.00 0.00 0.00 78 1014.4
20260905072513 77 281 0.0 0.0 0.00 0.00 0.00 78 1014.5
20260905072003 77 281 0.0 0.0 0.00 0.00 0.00 78 1014.5
20260905071508 77 281 0.0 0.0 0.00 0.00 0.00 78 1014.7
20260905071003 77 281 0.0 0.0 0.00 0.00 0.00 78 1014.6
20260905070511 77 281 0.0 0.0 0.00 0.00 0.00 77 1014.7
20260905070011 77 281 0.0 0.0 0.00 0.00 0.00 76 1014.9
20260905065509 77 281 0.0 0.0 0.00 0.00 0.00 77 1014.7
20260905065011 77 281 0.0 0.0 0.00 0.00 0.00 76 1014.8
20260905064517 78 281 0.0 0.0 0.00 0.00 0.00 76 1015.0
20260905064013 78 281 0.0 0.0 0.00 0.00 0.00 76 1015.0
20260905063510 78 281 0.0 0.0 0.00 0.00 0.00 76 1015.1
20260905063023 78 281 0.0 0.0 0.00 0.00 0.00 76 1015.2
20260905062503 78 281 0.0 0.0 0.00 0.00 0.00 76 1015.2
20260905062007 78 281 0.0 0.0 0.00 0.00 0.00 76 1015.3
20260905061505 78 281 0.0 0.0 0.00 0.00 0.00 76 1015.3
20260905061007 78 281 0.0 0.0 0.00 0.00 0.00 76 1015.4
20260905060504 78 281 0.0 0.0 0.00 0.00 0.00 76 1015.4
20260905060010 78 281 0.0 0.0 0.00 0.00 0.00 76 1015.5
20260905055507 78 281 0.0 0.0 0.00 0.00 0.00 76 1015.6
20260905055007 78 281 0.0 0.0 0.00 0.00 0.00 76 1015.6
20260905054518 78 281 0.0 0.0 0.00 0.00 0.00 76 1015.7
20260905054009 79 281 0.0 0.0 0.00 0.00 0.00 76 1015.7
20260905053511 79 281 0.0 0.0 0.00 0.00 0.00 75 1015.7
20260905053022 79 281 0.0 0.0 0.00 0.00 0.00 75 1015.8
20260905052514 79 281 0.0 0.0 0.00 0.00 0.00 75 1015.8
20260905052013 79 281 0.0 0.0 0.00 0.00 0.00 74 1015.8
20260905051532 79 281 0.0 0.0 0.00 0.00 0.00 74 1015.8
20260905051002 79 281 0.0 0.0 0.00 0.00 0.00 73 1015.8
20260905050506 79 281 0.0 0.0 0.00 0.00 0.00 73 1015.9
20260905050011 79 281 0.0 0.0 0.00 0.00 0.00 72 1015.9
20260905045509 79 281 0.0 0.0 0.00 0.00 0.00 72 1015.9
20260905045011 79 281 0.0 0.0 0.00 0.00 0.00 72 1015.9
20260905044516 80 281 0.0 0.0 0.00 0.00 0.00 71 1015.9
20260905044007 80 281 0.0 0.0 0.00 0.00 0.00 71 1015.8
20260905043511 80 281 0.0 0.0 0.00 0.00 0.00 71 1015.8
20260905043023 80 281 0.0 0.0 0.00 0.00 0.00 71 1015.8
20260905042513 80 281 0.0 0.0 0.00 0.00 0.00 70 1015.8
20260905042014 80 281 0.0 0.0 0.00 0.00 0.00 70 1015.8
20260905041526 80 281 0.0 0.0 0.00 0.00 0.00 70 1015.7
20260905041013 80 281 0.0 0.0 0.00 0.00 0.00 69 1015.8
20260905040513 80 281 0.0 0.0 0.00 0.00 0.00 69 1015.8
20260905040032 80 281 0.0 0.0 0.00 0.00 0.00 69 1015.9
20260905035514 81 281 0.0 0.0 0.00 0.00 0.00 68 1015.9
20260905035007 81 281 0.0 0.0 0.00 0.00 0.00 68 1015.9
20260905034509 81 281 0.0 0.0 0.00 0.00 0.00 67 1015.9
20260905034006 81 281 0.0 0.0 0.00 0.00 0.00 67 1016.0
20260905033508 81 281 0.0 0.0 0.00 0.00 0.00 67 1016.0
20260905033012 81 281 0.0 0.0 0.00 0.00 0.00 67 1016.0
20260905032513 81 281 0.0 0.0 0.00 0.00 0.00 66 1016.0
20260905032010 81 281 0.0 0.0 0.00 0.00 0.00 66 1015.9